1580495752.44,$M4.1 23229 419 445 -22153 -27315 0 0 *52
1580495753.57,$M4.1 23230 417 449 -22153 -27315 0 0 *58
1580495754.69,$M4.1 23231 417 445 -22153 -27315 0 0 *55
1580495755.82,$M4.1 23232 417 445 -22153 -27315 0 0 *56
1580495756.94,$M4.1 23233 417 441 -22153 -27315 0 0 *53
1580495758.07,$M4.1 23234 417 441 -22153 -27315 0 0 *54
1580495759.16,$M4.1 23235 419 441 -22153 -27315 0 0 *5B
1580495760.29,$M4.1 23236 417 445 -22153 -27315 0 0 *52
1580495761.38,$M4.1 23237 419 445 -22153 -27315 0 0 *5D
1580495762.51,$M4.1 23238 417 441 -22153 -27315 0 0 *58
1580495763.65,$M4.1 23239 417 437 -22153 -27315 0 0 *58
1580495764.73,$M4.1 23240 419 437 -22153 -27315 0 0 *58
1580495765.86,$M4.1 23241 417 437 -22153 -27315 0 0 *57
1580495767.0,$M4.1 23242 417 433 -22153 -27315 0 0 *50
1580495768.13,$M4.1 23243 417 433 -22153 -27315 0 0 *51
1580495769.25,$M4.1 23244 419 431 -22153 -27315 0 0 *5A
1580495770.35,$M4.1 23245 419 433 -22153 -27315 0 0 *59
1580495771.48,$M4.1 23246 417 433 -22153 -27315 0 0 *54
1580495772.61,$M4.1 23247 417 433 -22153 -27315 0 0 *55
1580495773.73,$M4.1 23248 417 433 -22153 -27315 0 0 *5A
1580495774.86,$M4.1 23249 417 433 -22153 -27315 0 0 *5B
1580495776.0,$M4.1 23250 417 441 -22153 -27315 0 0 *56
1580495777.08,$M4.1 23251 419 437 -22153 -27315 0 0 *58
1580495778.22,$M4.1 23252 417 437 -22153 -27315 0 0 *55
1580495779.35,$M4.1 23253 417 437 -22153 -27315 0 0 *54
1580495780.48,$M4.1 23254 417 437 -22153 -27315 0 0 *53
1580495781.58,$M4.1 23255 419 437 -22153 -27315 0 0 *5C
1580495782.72,$M4.1 23256 417 437 -22153 -27315 0 0 *51
1580495783.85,$M4.1 23257 417 437 -22153 -27315 0 0 *50
1580495784.97,$M4.1 23258 417 433 -22153 -27315 0 0 *5B
1580495786.1,$M4.1 23259 417 433 -22153 -27315 0 0 *5A
1580495787.23,$M4.1 23260 417 433 -22153 -27315 0 0 *50
1580495788.33,$M4.1 23261 415 433 -22153 -27315 0 0 *53
1580495789.47,$M4.1 23262 417 437 -22153 -27315 0 0 *56
1580495790.6,$M4.1 23263 417 437 -22153 -27315 0 0 *57
1580495791.7,$M4.1 23264 419 437 -22153 -27315 0 0 *5E
1580495792.82,$M4.1 23265 417 441 -22153 -27315 0 0 *50
1580495793.94,$M4.1 23266 417 445 -22153 -27315 0 0 *57
1580495795.07,$M4.1 23267 417 449 -22153 -27315 0 0 *5A
1580495796.19,$M4.1 23268 417 453 -22153 -27315 0 0 *5E
1580495797.32,$M4.1 23269 417 445 -22153 -27315 0 0 *58
1580495798.44,$M4.1 23270 417 445 -22153 -27315 0 0 *50
1580495799.57,$M4.1 23271 417 445 -22153 -27315 0 0 *51
1580495800.69,$M4.1 23272 417 445 -22153 -27315 0 0 *52
1580495801.82,$M4.1 23273 417 437 -22153 -27315 0 0 *56
1580495802.94,$M4.1 23274 417 433 -22153 -27315 0 0 *55
1580495804.07,$M4.1 23275 417 437 -22153 -27315 0 0 *50
1580495805.17,$M4.1 23276 415 437 -22153 -27315 0 0 *51
1580495806.31,$M4.1 23277 417 441 -22153 -27315 0 0 *53
1580495807.44,$M4.1 23278 417 437 -22153 -27315 0 0 *5D
1580495808.57,$M4.1 23279 417 437 -22153 -27315 0 0 *5C
1580495809.66,$M4.1 23280 419 445 -22153 -27315 0 0 *51
1580495810.76,$M4.1 23281 415 437 -22153 -27315 0 0 *59
1580495811.86,$M4.1 23282 415 437 -22153 -27315 0 0 *5A
1580495812.96,$M4.1 23283 415 441 -22153 -27315 0 0 *5A
1580495814.08,$M4.1 23284 417 441 -22153 -27315 0 0 *5F
1580495815.2,$M4.1 23285 417 441 -22153 -27315 0 0 *5E
1580495816.33,$M4.1 23286 417 437 -22153 -27315 0 0 *5C
1580495817.45,$M4.1 23287 417 441 -22153 -27315 0 0 *5C
1580495818.58,$M4.1 23288 417 441 -22153 -27315 0 0 *53
1580495819.7,$M4.1 23289 417 445 -22153 -27315 0 0 *56
1580495820.8,$M4.1 23290 415 437 -22153 -27315 0 0 *59
1580495821.9,$M4.1 23291 415 437 -22153 -27315 0 0 *58
1580495822.98,$M4.1 23292 415 449 -22153 -27315 0 0 *52
1580495824.12,$M4.1 23293 417 441 -22153 -27315 0 0 *59
1580495825.22,$M4.1 23294 415 437 -22153 -27315 0 0 *5D
1580495826.35,$M4.1 23295 417 441 -22153 -27315 0 0 *5F
1580495827.47,$M4.1 23296 417 433 -22153 -27315 0 0 *59
1580495828.6,$M4.1 23297 417 427 -22153 -27315 0 0 *5D
1580495829.74,$M4.1 23298 419 431 -22153 -27315 0 0 *5B
1580495830.88,$M4.1 23299 417 431 -22153 -27315 0 0 *54
1580495832.04,$M4.1 23300 417 431 -22153 -27315 0 0 *55
1580495833.17,$M4.1 23301 417 427 -22153 -27315 0 0 *53
1580495834.27,$M4.1 23302 415 427 -22153 -27315 0 0 *52
1580495835.37,$M4.1 23303 415 427 -22153 -27315 0 0 *53
1580495836.5,$M4.1 23304 413 423 -22153 -27315 0 0 *56
1580495837.6,$M4.1 23305 415 423 -22153 -27315 0 0 *51
1580495838.74,$M4.1 23306 415 431 -22153 -27315 0 0 *51
1580495839.84,$M4.1 23307 415 441 -22153 -27315 0 0 *57
1580495840.94,$M4.1 23308 415 437 -22153 -27315 0 0 *59
1580495842.07,$M4.1 23309 415 431 -22153 -27315 0 0 *5E
1580495843.19,$M4.1 23310 415 431 -22153 -27315 0 0 *56
1580495844.34,$M4.1 23311 413 431 -22153 -27315 0 0 *51
1580495845.47,$M4.1 23312 413 433 -22153 -27315 0 0 *50
1580495846.61,$M4.1 23313 413 427 -22153 -27315 0 0 *54
1580495847.72,$M4.1 23314 413 433 -22153 -27315 0 0 *56
1580495848.83,$M4.1 23315 415 437 -22153 -27315 0 0 *55
1580495849.99,$M4.1 23316 413 431 -22153 -27315 0 0 *56
1580495851.09,$M4.1 23317 415 441 -22153 -27315 0 0 *56
1580495852.21,$M4.1 23318 413 433 -22153 -27315 0 0 *5A
1580495853.31,$M4.1 23319 415 433 -22153 -27315 0 0 *5D
1580495854.44,$M4.1 23320 413 433 -22153 -27315 0 0 *51
1580495855.55,$M4.1 23321 415 427 -22153 -27315 0 0 *53
1580495856.68,$M4.1 23322 413 427 -22153 -27315 0 0 *56
1580495857.78,$M4.1 23323 415 433 -22153 -27315 0 0 *54
1580495858.88,$M4.1 23324 415 433 -22153 -27315 0 0 *53
1580495860.03,$M4.1 23325 413 431 -22153 -27315 0 0 *56
1580495861.13,$M4.1 23326 415 437 -22153 -27315 0 0 *55
1580495862.23,$M4.1 23327 415 437 -22153 -27315 0 0 *54
1580495863.37,$M4.1 23328 413 433 -22153 -27315 0 0 *59
1580495864.5,$M4.1 23329 413 433 -22153 -27315 0 0 *58
1580495865.6,$M4.1 23330 415 433 -22153 -27315 0 0 *56
1580495866.73,$M4.1 23331 415 431 -22153 -27315 0 0 *55
1580495867.88,$M4.1 23332 413 431 -22153 -27315 0 0 *50
1580495868.99,$M4.1 23333 415 427 -22153 -27315 0 0 *50
1580495870.12,$M4.1 23334 413 433 -22153 -27315 0 0 *54
1580495871.25,$M4.1 23335 415 431 -22153 -27315 0 0 *51
1580495872.4,$M4.1 23336 413 431 -22153 -27315 0 0 *54
1580495873.53,$M4.1 23337 415 431 -22153 -27315 0 0 *53
1580495874.67,$M4.1 23338 413 433 -22153 -27315 0 0 *58
1580495875.78,$M4.1 23339 413 437 -22153 -27315 0 0 *5D
1580495876.92,$M4.1 23340 413 437 -22153 -27315 0 0 *53
1580495878.05,$M4.1 23341 413 433 -22153 -27315 0 0 *56
1580495879.15,$M4.1 23342 415 445 -22153 -27315 0 0 *52
1580495880.27,$M4.1 23343 413 445 -22153 -27315 0 0 *55
1580495881.39,$M4.1 23344 413 445 -22153 -27315 0 0 *52
1580495882.52,$M4.1 23345 413 445 -22153 -27315 0 0 *53
1580495883.64,$M4.1 23346 413 445 -22153 -27315 0 0 *50
1580495884.74,$M4.1 23347 415 445 -22153 -27315 0 0 *57
1580495885.87,$M4.1 23348 413 437 -22153 -27315 0 0 *5B
1580495887.0,$M4.1 23349 413 437 -22153 -27315 0 0 *5A
1580495888.14,$M4.1 23350 413 437 -22153 -27315 0 0 *52
1580495889.26,$M4.1 23351 413 433 -22153 -27315 0 0 *57
1580495890.36,$M4.1 23352 415 441 -22153 -27315 0 0 *57
1580495891.49,$M4.1 23353 413 437 -22153 -27315 0 0 *51
1580495892.62,$M4.1 23354 413 433 -22153 -27315 0 0 *52
1580495893.76,$M4.1 23355 413 437 -22153 -27315 0 0 *57
1580495894.87,$M4.1 23356 413 445 -22153 -27315 0 0 *51
1580495896.01,$M4.1 23357 413 437 -22153 -27315 0 0 *55
1580495897.14,$M4.1 23358 413 437 -22153 -27315 0 0 *5A
1580495898.27,$M4.1 23359 413 433 -22153 -27315 0 0 *5F
1580495899.37,$M4.1 23360 415 437 -22153 -27315 0 0 *57
1580495900.49,$M4.1 23361 413 441 -22153 -27315 0 0 *51
1580495901.62,$M4.1 23362 413 445 -22153 -27315 0 0 *56
1580495902.74,$M4.1 23363 413 441 -22153 -27315 0 0 *53
1580495903.88,$M4.1 23364 413 445 -22153 -27315 0 0 *50
1580495904.99,$M4.1 23365 413 441 -22153 -27315 0 0 *55
1580495906.09,$M4.1 23366 415 437 -22153 -27315 0 0 *51
1580495907.19,$M4.1 23367 415 445 -22153 -27315 0 0 *55
1580495908.33,$M4.1 23368 413 437 -22153 -27315 0 0 *59
1580495909.45,$M4.1 23369 415 437 -22153 -27315 0 0 *5E
1580495910.59,$M4.1 23370 413 431 -22153 -27315 0 0 *56
1580495911.73,$M4.1 23371 413 433 -22153 -27315 0 0 *55
1580495912.83,$M4.1 23372 415 445 -22153 -27315 0 0 *51
1580495913.95,$M4.1 23373 413 441 -22153 -27315 0 0 *52
1580495915.05,$M4.1 23374 415 449 -22153 -27315 0 0 *5B
1580495916.2,$M4.1 23375 413 467 -22153 -27315 0 0 *50
1580495917.33,$M4.1 23376 413 437 -22153 -27315 0 0 *56
1580495918.48,$M4.1 23377 413 431 -22153 -27315 0 0 *51
1580495919.63,$M4.1 23378 413 431 -22153 -27315 0 0 *5E
1580495920.76,$M4.1 23379 413 433 -22153 -27315 0 0 *5D
1580495921.89,$M4.1 23380 413 437 -22153 -27315 0 0 *5F
1580495923.01,$M4.1 23381 413 441 -22153 -27315 0 0 *5F
1580495924.11,$M4.1 23382 415 449 -22153 -27315 0 0 *52
1580495925.2,$M4.1 23383 415 449 -22153 -27315 0 0 *53
1580495926.33,$M4.1 23384 413 433 -22153 -27315 0 0 *5F
1580495927.47,$M4.1 23385 413 437 -22153 -27315 0 0 *5A
1580495928.58,$M4.1 23386 413 441 -22153 -27315 0 0 *58
1580495929.72,$M4.1 23387 413 437 -22153 -27315 0 0 *58
1580495930.82,$M4.1 23388 411 441 -22153 -27315 0 0 *54
1580495931.95,$M4.1 23389 413 437 -22153 -27315 0 0 *56
1580495933.07,$M4.1 23390 415 437 -22153 -27315 0 0 *58
1580495934.19,$M4.1 23391 413 437 -22153 -27315 0 0 *5F
1580495935.32,$M4.1 23392 413 433 -22153 -27315 0 0 *58
1580495936.45,$M4.1 23393 413 433 -22153 -27315 0 0 *59
1580495937.57,$M4.1 23394 413 433 -22153 -27315 0 0 *5E
1580495938.7,$M4.1 23395 413 433 -22153 -27315 0 0 *5F
1580495939.85,$M4.1 23396 413 431 -22153 -27315 0 0 *5E
1580495941.0,$M4.1 23397 413 431 -22153 -27315 0 0 *5F
1580495942.17,$M4.1 23398 413 431 -22153 -27315 0 0 *50
1580495943.27,$M4.1 23399 411 445 -22153 -27315 0 0 *50
1580495944.37,$M4.1 23400 411 441 -22153 -27315 0 0 *53
1580495945.47,$M4.1 23401 411 437 -22153 -27315 0 0 *53
1580495946.6,$M4.1 23402 413 437 -22153 -27315 0 0 *52
1580495947.69,$M4.1 23403 415 449 -22153 -27315 0 0 *5C
1580495948.79,$M4.1 23404 415 445 -22153 -27315 0 0 *57
1580495949.92,$M4.1 23405 413 433 -22153 -27315 0 0 *51
1580495951.04,$M4.1 23406 413 433 -22153 -27315 0 0 *52
1580495952.14,$M4.1 23407 411 433 -22153 -27315 0 0 *51
1580495953.27,$M4.1 23408 415 431 -22153 -27315 0 0 *58
1580495954.38,$M4.1 23409 411 433 -22153 -27315 0 0 *5F
1580495955.54,$M4.1 23410 409 431 -22153 -27315 0 0 *5C
1580495956.64,$M4.1 23411 411 437 -22153 -27315 0 0 *52
1580495957.74,$M4.1 23412 411 437 -22153 -27315 0 0 *51
1580495958.84,$M4.1 23413 411 441 -22153 -27315 0 0 *51
1580495959.95,$M4.1 23414 411 437 -22153 -27315 0 0 *57
1580495961.05,$M4.1 23415 411 441 -22153 -27315 0 0 *57
1580495962.16,$M4.1 23416 413 445 -22153 -27315 0 0 *52
1580495963.27,$M4.1 23417 411 445 -22153 -27315 0 0 *51
1580495964.37,$M4.1 23418 411 445 -22153 -27315 0 0 *5E
1580495965.47,$M4.1 23419 411 445 -22153 -27315 0 0 *5F
1580495966.57,$M4.1 23420 411 445 -22153 -27315 0 0 *55
1580495967.67,$M4.1 23421 411 437 -22153 -27315 0 0 *51
1580495968.77,$M4.1 23422 411 441 -22153 -27315 0 0 *53
1580495969.9,$M4.1 23423 413 441 -22153 -27315 0 0 *50
1580495971.01,$M4.1 23424 411 445 -22153 -27315 0 0 *51
1580495972.09,$M4.1 23425 411 441 -22153 -27315 0 0 *54
1580495973.22,$M4.1 23426 409 441 -22153 -27315 0 0 *5E
1580495974.36,$M4.1 23427 409 441 -22153 -27315 0 0 *5F
1580495975.47,$M4.1 23428 409 445 -22153 -27315 0 0 *54
1580495976.61,$M4.1 23429 409 445 -22153 -27315 0 0 *55
1580495977.71,$M4.1 23430 411 441 -22153 -27315 0 0 *50
1580495978.81,$M4.1 23431 411 445 -22153 -27315 0 0 *55
1580495979.9,$M4.1 23432 411 445 -22153 -27315 0 0 *56
1580495981.0,$M4.1 23433 411 445 -22153 -27315 0 0 *57
1580495982.13,$M4.1 23434 409 441 -22153 -27315 0 0 *5D
1580495983.22,$M4.1 23435 411 445 -22153 -27315 0 0 *51
1580495984.32,$M4.1 23436 411 445 -22153 -27315 0 0 *52
1580495985.42,$M4.1 23437 411 441 -22153 -27315 0 0 *57
1580495986.52,$M4.1 23438 411 437 -22153 -27315 0 0 *59
1580495987.62,$M4.1 23439 411 437 -22153 -27315 0 0 *58
1580495988.72,$M4.1 23440 411 433 -22153 -27315 0 0 *52
1580495989.84,$M4.1 23441 411 437 -22153 -27315 0 0 *57
1580495990.94,$M4.1 23442 411 437 -22153 -27315 0 0 *54
1580495992.06,$M4.1 23443 409 441 -22153 -27315 0 0 *5D
1580495993.19,$M4.1 23444 409 441 -22153 -27315 0 0 *5A
1580495994.32,$M4.1 23445 409 441 -22153 -27315 0 0 *5B
1580495995.44,$M4.1 23446 409 441 -22153 -27315 0 0 *58
1580495996.58,$M4.1 23447 409 441 -22153 -27315 0 0 *59
1580495997.66,$M4.1 23448 411 445 -22153 -27315 0 0 *5B
1580495998.78,$M4.1 23449 411 437 -22153 -27315 0 0 *5F
1580495999.9,$M4.1 23450 409 437 -22153 -27315 0 0 *5E
1580496001.0,$M4.1 23451 411 445 -22153 -27315 0 0 *53
1580496002.13,$M4.1 23452 409 441 -22153 -27315 0 0 *5D
1580496003.23,$M4.1 23453 411 445 -22153 -27315 0 0 *51
1580496004.32,$M4.1 23454 411 445 -22153 -27315 0 0 *56
1580496005.42,$M4.1 23455 411 445 -22153 -27315 0 0 *57
1580496006.55,$M4.1 23456 409 445 -22153 -27315 0 0 *5D
1580496007.65,$M4.1 23457 411 441 -22153 -27315 0 0 *51
1580496008.74,$M4.1 23458 411 445 -22153 -27315 0 0 *5A
1580496009.87,$M4.1 23459 409 441 -22153 -27315 0 0 *56
1580496010.99,$M4.1 23460 413 445 -22153 -27315 0 0 *53
1580496012.11,$M4.1 23461 411 433 -22153 -27315 0 0 *51
1580496013.21,$M4.1 23462 411 433 -22153 -27315 0 0 *52
1580496014.36,$M4.1 23463 409 431 -22153 -27315 0 0 *58
1580496015.49,$M4.1 23464 409 437 -22153 -27315 0 0 *59
1580496016.62,$M4.1 23465 409 437 -22153 -27315 0 0 *58
1580496017.72,$M4.1 23466 411 441 -22153 -27315 0 0 *53
1580496018.84,$M4.1 23467 409 441 -22153 -27315 0 0 *5B
1580496019.97,$M4.1 23468 409 437 -22153 -27315 0 0 *55
1580496021.08,$M4.1 23469 411 445 -22153 -27315 0 0 *58
1580496022.21,$M4.1 23470 409 437 -22153 -27315 0 0 *5C
1580496023.31,$M4.1 23471 411 441 -22153 -27315 0 0 *55
1580496024.44,$M4.1 23472 409 437 -22153 -27315 0 0 *5E
1580496025.58,$M4.1 23473 409 437 -22153 -27315 0 0 *5F
1580496026.69,$M4.1 23474 409 433 -22153 -27315 0 0 *5C
1580496027.83,$M4.1 23475 409 437 -22153 -27315 0 0 *59
1580496028.96,$M4.1 23476 409 433 -22153 -27315 0 0 *5E
1580496030.09,$M4.1 23477 409 437 -22153 -27315 0 0 *5B
1580496031.23,$M4.1 23478 409 437 -22153 -27315 0 0 *54
1580496032.34,$M4.1 23479 409 433 -22153 -27315 0 0 *51
1580496033.48,$M4.1 23480 409 437 -22153 -27315 0 0 *53
1580496034.61,$M4.1 23481 409 437 -22153 -27315 0 0 *52
1580496035.74,$M4.1 23482 409 445 -22153 -27315 0 0 *54
1580496036.86,$M4.1 23483 409 445 -22153 -27315 0 0 *55
1580496037.98,$M4.1 23484 409 449 -22153 -27315 0 0 *5E
1580496039.11,$M4.1 23485 409 453 -22153 -27315 0 0 *54
1580496040.21,$M4.1 23486 411 453 -22153 -27315 0 0 *5E
1580496041.35,$M4.1 23487 409 457 -22153 -27315 0 0 *52
1580496042.43,$M4.1 23488 411 449 -22153 -27315 0 0 *5B
1580496043.57,$M4.1 23489 409 449 -22153 -27315 0 0 *53
1580496044.65,$M4.1 23490 411 445 -22153 -27315 0 0 *5E
1580496045.78,$M4.1 23491 409 441 -22153 -27315 0 0 *52
1580496046.9,$M4.1 23492 409 441 -22153 -27315 0 0 *51
1580496048.0,$M4.1 23493 411 441 -22153 -27315 0 0 *59
1580496049.1,$M4.1 23494 411 445 -22153 -27315 0 0 *5A
1580496050.21,$M4.1 23495 411 437 -22153 -27315 0 0 *5E
1580496051.34,$M4.1 23496 409 433 -22153 -27315 0 0 *50
1580496052.46,$M4.1 23497 409 441 -22153 -27315 0 0 *54
1580496053.59,$M4.1 23498 409 441 -22153 -27315 0 0 *5B
1580496054.72,$M4.1 23499 409 441 -22153 -27315 0 0 *5A
1580496055.84,$M4.1 23500 409 441 -22153 -27315 0 0 *5B
1580496056.97,$M4.1 23501 409 441 -22153 -27315 0 0 *5A
1580496058.07,$M4.1 23502 411 441 -22153 -27315 0 0 *50
1580496059.16,$M4.1 23503 411 445 -22153 -27315 0 0 *55
1580496060.26,$M4.1 23504 411 441 -22153 -27315 0 0 *56
1580496061.39,$M4.1 23505 411 431 -22153 -27315 0 0 *50
1580496062.53,$M4.1 23506 409 437 -22153 -27315 0 0 *5C
1580496063.63,$M4.1 23507 411 441 -22153 -27315 0 0 *55
1580496064.73,$M4.1 23508 411 433 -22153 -27315 0 0 *5F
1580496065.86,$M4.1 23509 409 433 -22153 -27315 0 0 *57
1580496066.95,$M4.1 23510 411 445 -22153 -27315 0 0 *57
1580496068.05,$M4.1 23511 411 445 -22153 -27315 0 0 *56
1580496069.18,$M4.1 23512 409 441 -22153 -27315 0 0 *58
1580496070.3,$M4.1 23513 409 437 -22153 -27315 0 0 *58
1580496071.4,$M4.1 23514 411 445 -22153 -27315 0 0 *53
1580496072.5,$M4.1 23515 411 433 -22153 -27315 0 0 *53
1580496073.64,$M4.1 23516 409 433 -22153 -27315 0 0 *59
1580496074.74,$M4.1 23517 411 427 -22153 -27315 0 0 *54
1580496075.85,$M4.1 23518 409 427 -22153 -27315 0 0 *52
1580496076.99,$M4.1 23519 409 423 -22153 -27315 0 0 *57
1580496078.14,$M4.1 23520 409 431 -22153 -27315 0 0 *5E
1580496079.29,$M4.1 23521 409 431 -22153 -27315 0 0 *5F
1580496080.42,$M4.1 23522 411 431 -22153 -27315 0 0 *55
1580496081.57,$M4.1 23523 409 431 -22153 -27315 0 0 *5D
1580496082.73,$M4.1 23524 409 431 -22153 -27315 0 0 *5A
1580496083.83,$M4.1 23525 411 427 -22153 -27315 0 0 *55
1580496084.95,$M4.1 23526 407 431 -22153 -27315 0 0 *56
1580496086.08,$M4.1 23527 409 427 -22153 -27315 0 0 *5E
1580496087.22,$M4.1 23528 409 427 -22153 -27315 0 0 *51
1580496088.35,$M4.1 23529 407 431 -22153 -27315 0 0 *59
1580496089.45,$M4.1 23530 407 427 -22153 -27315 0 0 *56
1580496090.55,$M4.1 23531 407 427 -22153 -27315 0 0 *57
1580496091.67,$M4.1 23532 409 427 -22153 -27315 0 0 *5A
1580496092.8,$M4.1 23533 407 431 -22153 -27315 0 0 *52
1580496093.9,$M4.1 23534 407 423 -22153 -27315 0 0 *56
1580496095.01,$M4.1 23535 407 427 -22153 -27315 0 0 *53
1580496096.14,$M4.1 23536 407 431 -22153 -27315 0 0 *57
1580496097.26,$M4.1 23537 407 431 -22153 -27315 0 0 *56
1580496098.37,$M4.1 23538 407 427 -22153 -27315 0 0 *5E
1580496099.46,$M4.1 23539 403 427 -22153 -27315 0 0 *5B
1580496100.59,$M4.1 23540 409 437 -22153 -27315 0 0 *5E
1580496101.72,$M4.1 23541 403 431 -22153 -27315 0 0 *53
1580496102.86,$M4.1 23542 409 433 -22153 -27315 0 0 *58
1580496103.99,$M4.1 23543 409 437 -22153 -27315 0 0 *5D
1580496105.11,$M4.1 23544 409 437 -22153 -27315 0 0 *5A
1580496106.24,$M4.1 23545 409 437 -22153 -27315 0 0 *5B
1580496107.38,$M4.1 23546 409 433 -22153 -27315 0 0 *5C
1580496108.51,$M4.1 23547 409 433 -22153 -27315 0 0 *5D
1580496109.61,$M4.1 23548 407 437 -22153 -27315 0 0 *58
1580496110.71,$M4.1 23549 407 437 -22153 -27315 0 0 *59
1580496111.84,$M4.1 23550 407 431 -22153 -27315 0 0 *57
1580496112.98,$M4.1 23551 407 431 -22153 -27315 0 0 *56
1580496114.08,$M4.1 23552 407 433 -22153 -27315 0 0 *57
1580496115.2,$M4.1 23553 409 441 -22153 -27315 0 0 *5D
1580496116.3,$M4.1 23554 407 441 -22153 -27315 0 0 *54
1580496117.4,$M4.1 23555 407 433 -22153 -27315 0 0 *50
1580496118.5,$M4.1 23556 407 433 -22153 -27315 0 0 *53
1580496119.6,$M4.1 23557 407 427 -22153 -27315 0 0 *57
1580496120.7,$M4.1 23558 407 427 -22153 -27315 0 0 *58
1580496121.8,$M4.1 23559 407 427 -22153 -27315 0 0 *59
1580496122.9,$M4.1 23560 407 427 -22153 -27315 0 0 *53
1580496124.04,$M4.1 23561 407 431 -22153 -27315 0 0 *55
1580496125.14,$M4.1 23562 407 433 -22153 -27315 0 0 *54
1580496126.24,$M4.1 23563 407 441 -22153 -27315 0 0 *50
1580496127.34,$M4.1 23564 407 433 -22153 -27315 0 0 *52
1580496128.43,$M4.1 23565 403 433 -22153 -27315 0 0 *57
1580496129.56,$M4.1 23566 409 437 -22153 -27315 0 0 *5A
1580496130.69,$M4.1 23567 407 431 -22153 -27315 0 0 *53
1580496131.8,$M4.1 23568 407 433 -22153 -27315 0 0 *5E
1580496132.9,$M4.1 23569 407 427 -22153 -27315 0 0 *5A
1580496134.0,$M4.1 23570 407 433 -22153 -27315 0 0 *57
1580496135.1,$M4.1 23571 403 419 -22153 -27315 0 0 *5A
1580496136.2,$M4.1 23572 407 423 -22153 -27315 0 0 *54
1580496137.29,$M4.1 23573 403 423 -22153 -27315 0 0 *51
1580496138.42,$M4.1 23574 403 431 -22153 -27315 0 0 *55
1580496139.55,$M4.1 23575 407 431 -22153 -27315 0 0 *50
1580496140.65,$M4.1 23576 407 427 -22153 -27315 0 0 *54
1580496141.74,$M4.1 23577 403 423 -22153 -27315 0 0 *55
1580496142.87,$M4.1 23578 407 431 -22153 -27315 0 0 *5D
1580496144.01,$M4.1 23579 407 431 -22153 -27315 0 0 *5C
1580496145.11,$M4.1 23580 403 423 -22153 -27315 0 0 *5D
1580496146.19,$M4.1 23581 403 419 -22153 -27315 0 0 *55
1580496147.29,$M4.1 23582 407 427 -22153 -27315 0 0 *5F
1580496148.39,$M4.1 23583 407 423 -22153 -27315 0 0 *5A
1580496149.5,$M4.1 23584 403 423 -22153 -27315 0 0 *59
1580496150.6,$M4.1 23585 407 427 -22153 -27315 0 0 *58
1580496151.7,$M4.1 23586 403 423 -22153 -27315 0 0 *5B
1580496152.78,$M4.1 23587 403 423 -22153 -27315 0 0 *5A
1580496153.9,$M4.1 23588 407 427 -22153 -27315 0 0 *55
1580496155.0,$M4.1 23589 407 433 -22153 -27315 0 0 *51
1580496156.12,$M4.1 23590 407 431 -22153 -27315 0 0 *5B
1580496157.22,$M4.1 23591 403 427 -22153 -27315 0 0 *59
1580496158.32,$M4.1 23592 403 427 -22153 -27315 0 0 *5A
1580496159.42,$M4.1 23593 403 423 -22153 -27315 0 0 *5F
1580496160.52,$M4.1 23594 407 427 -22153 -27315 0 0 *58
1580496161.63,$M4.1 23595 403 433 -22153 -27315 0 0 *58
1580496162.73,$M4.1 23596 407 437 -22153 -27315 0 0 *5B
1580496163.83,$M4.1 23597 407 427 -22153 -27315 0 0 *5B
1580496164.93,$M4.1 23598 407 427 -22153 -27315 0 0 *54
1580496166.06,$M4.1 23599 407 431 -22153 -27315 0 0 *52
1580496167.18,$M4.1 23600 407 431 -22153 -27315 0 0 *51
1580496168.31,$M4.1 23601 407 431 -22153 -27315 0 0 *50
1580496169.41,$M4.1 23602 407 423 -22153 -27315 0 0 *50
1580496170.51,$M4.1 23603 407 423 -22153 -27315 0 0 *51
1580496171.62,$M4.1 23604 407 419 -22153 -27315 0 0 *5F
1580496172.73,$M4.1 23605 409 427 -22153 -27315 0 0 *5D
1580496173.83,$M4.1 23606 407 427 -22153 -27315 0 0 *50
1580496174.94,$M4.1 23607 403 419 -22153 -27315 0 0 *58
1580496176.04,$M4.1 23608 407 427 -22153 -27315 0 0 *5E
1580496177.14,$M4.1 23609 403 411 -22153 -27315 0 0 *5E
1580496178.24,$M4.1 23610 407 427 -22153 -27315 0 0 *57
1580496179.37,$M4.1 23611 407 431 -22153 -27315 0 0 *51
1580496180.47,$M4.1 23612 407 433 -22153 -27315 0 0 *50
1580496181.56,$M4.1 23613 403 449 -22153 -27315 0 0 *58
1580496182.66,$M4.1 23614 407 445 -22153 -27315 0 0 *57
1580496183.79,$M4.1 23615 407 431 -22153 -27315 0 0 *55
1580496184.89,$M4.1 23616 407 423 -22153 -27315 0 0 *55
1580496186.0,$M4.1 23617 407 423 -22153 -27315 0 0 *54
1580496187.1,$M4.1 23618 407 427 -22153 -27315 0 0 *5F
1580496188.2,$M4.1 23619 407 423 -22153 -27315 0 0 *5A
1580496189.28,$M4.1 23620 403 423 -22153 -27315 0 0 *54
1580496190.39,$M4.1 23621 403 415 -22153 -27315 0 0 *50
1580496191.52,$M4.1 23622 409 415 -22153 -27315 0 0 *59
1580496192.62,$M4.1 23623 407 419 -22153 -27315 0 0 *5A
1580496193.72,$M4.1 23624 407 423 -22153 -27315 0 0 *54
1580496194.82,$M4.1 23625 407 419 -22153 -27315 0 0 *5C
1580496195.91,$M4.1 23626 403 419 -22153 -27315 0 0 *5B
1580496197.04,$M4.1 23627 409 423 -22153 -27315 0 0 *59
1580496198.14,$M4.1 23628 407 427 -22153 -27315 0 0 *5C
1580496199.24,$M4.1 23629 407 419 -22153 -27315 0 0 *50
1580496200.33,$M4.1 23630 403 419 -22153 -27315 0 0 *5C
1580496201.43,$M4.1 23631 407 427 -22153 -27315 0 0 *54
1580496202.53,$M4.1 23632 407 427 -22153 -27315 0 0 *57
1580496203.63,$M4.1 23633 407 423 -22153 -27315 0 0 *52
1580496204.73,$M4.1 23634 407 419 -22153 -27315 0 0 *5C
1580496205.87,$M4.1 23635 409 423 -22153 -27315 0 0 *5A
1580496206.98,$M4.1 23636 409 423 -22153 -27315 0 0 *59
1580496208.09,$M4.1 23637 407 423 -22153 -27315 0 0 *56
1580496209.19,$M4.1 23638 407 423 -22153 -27315 0 0 *59
1580496210.32,$M4.1 23639 409 423 -22153 -27315 0 0 *56
1580496211.45,$M4.1 23640 409 411 -22153 -27315 0 0 *59
1580496212.57,$M4.1 23641 409 407 -22153 -27315 0 0 *5F
1580496213.71,$M4.1 23642 409 407 -22153 -27315 0 0 *5C
1580496214.82,$M4.1 23643 403 401 -22153 -27315 0 0 *51
1580496215.99,$M4.1 23644 409 405 -22153 -27315 0 0 *58
1580496217.1,$M4.1 23645 403 401 -22153 -27315 0 0 *57
1580496218.21,$M4.1 23646 403 407 -22153 -27315 0 0 *52
1580496219.31,$M4.1 23647 407 407 -22153 -27315 0 0 *57
1580496220.44,$M4.1 23648 407 405 -22153 -27315 0 0 *5A
1580496221.57,$M4.1 23649 407 405 -22153 -27315 0 0 *5B
1580496222.66,$M4.1 23650 407 441 -22153 -27315 0 0 *53